Broomfield, CO

4:34 PM MDT on September 24, 2017 (GMT -0600)
Jeffco

Weather History for KBJC - March, 2011

Change the Weather History Date:

Tuesday, March 15, 2011

  Actual Average Record
Temperature  
Mean Temperature 48 °F -  
Max Temperature 57 °F 51 °F 77 °F (2013)
Min Temperature 39 °F 30 °F 14 °F (1997)
Degree Days  
Heating Degree Days 17    
Moisture  
Dew Point 23 °F    
Average Humidity 42    
Maximum Humidity 61    
Minimum Humidity 25    
Precipitation  
Precipitation 0.00 in - - ()
Sea Level Pressure  
Sea Level Pressure 30.09 in    
Wind  
Wind Speed 8 mph (WSW)    
Max Wind Speed 17 mph    
Max Gust Speed 26 mph    
Visibility 11 miles    
Events      
Averages and records for this station are not official NWS values.
T = Trace of Precipitation, MM = Missing Value Source: NWS Daily Summary

Daily Weather History Graph

Daily Weather History Graph

Search for Another Location

Airport or City:

Trip Planner

Search our weather history database for the weather conditions in past years. The results will help you decide how hot, cold, wet, or windy it might be!

Date:

Astronomy

Mar. 15, 2011 Rise Set
Actual Time 7:12 AM MDT 7:07 PM MDT
Civil Twilight 6:45 AM MDT 7:34 PM MDT
Nautical Twilight 6:13 AM MDT 8:05 PM MDT
Astronomical Twilight 5:42 AM MDT 8:37 PM MDT
Moon 2:37 PM MDT (3/15) 4:20 AM MDT (3/15)
Length of Visible Light 12h 48m
Length of Day
11h 54m
Waxing Gibbous, 78% of the Moon is Illuminated
Mar 15
Waxing Gibbous
Mar 19
Full
Mar 26
Last Quarter
Apr 3
New
Apr 11
First Quarter

Hourly Weather History & Observations

Time (MDT) Temp. Windchill Dew Point Humidity Pressure Visibility Wind Dir Wind Speed Gust Speed Precip Events Conditions
12:15 AM 46.4 °F 44.3 °F 24.8 °F 43% 30.08 in 10.0 mi West 4.6 mph - N/A   Clear
12:35 AM 42.8 °F 37.5 °F 24.8 °F 49% 30.08 in 10.0 mi West 9.2 mph - N/A   Clear
12:55 AM 42.8 °F 38.0 °F 24.8 °F 49% 30.08 in 10.0 mi West 8.1 mph - N/A   Clear
1:15 AM 44.6 °F 41.4 °F 23.0 °F 43% 30.08 in 10.0 mi WSW 5.8 mph - N/A   Clear
1:35 AM 42.8 °F 40.1 °F 21.2 °F 42% 30.08 in 10.0 mi WNW 4.6 mph - N/A   Clear
1:55 AM 42.8 °F - 21.2 °F 42% 30.08 in 10.0 mi Calm Calm - N/A   Clear
2:15 AM 41.0 °F 35.2 °F 21.2 °F 45% 30.09 in 10.0 mi WSW 9.2 mph - N/A   Clear
2:35 AM 46.4 °F 39.8 °F 23.0 °F 40% 30.08 in 10.0 mi WSW 16.1 mph - N/A   Clear
2:54 AM 46.4 °F 40.1 °F 23.0 °F 40% 30.07 in 10.0 mi West 15.0 mph 19.6 mph N/A   Clear
3:07 AM 48.2 °F - 21.2 °F 34% 30.07 in 10.0 mi West 17.3 mph 26.5 mph N/A   Clear
3:35 AM 46.4 °F 41.5 °F 21.2 °F 37% 30.07 in 10.0 mi West 10.4 mph - N/A   Clear
3:54 AM 44.6 °F 38.1 °F 21.2 °F 39% 30.07 in 10.0 mi WNW 13.8 mph 18.4 mph N/A   Clear
4:14 AM 46.4 °F 40.4 °F 21.2 °F 37% 30.08 in 10.0 mi West 13.8 mph - N/A   Clear
4:35 AM 46.4 °F 39.5 °F 21.2 °F 37% 30.08 in 10.0 mi WNW 17.3 mph 23.0 mph N/A   Clear
4:55 AM 42.8 °F 37.5 °F 21.2 °F 42% 30.08 in 10.0 mi NW 9.2 mph - N/A   Clear
5:15 AM 42.8 °F 37.5 °F 21.2 °F 42% 30.09 in 10.0 mi North 9.2 mph - N/A   Clear
5:35 AM 41.0 °F 39.0 °F 21.2 °F 45% 30.11 in 10.0 mi West 3.5 mph - N/A   Clear
5:45 AM 44.6 °F 42.2 °F 21.2 °F 39% 30.12 in 30.0 mi WNW 4.6 mph - N/A   Scattered Clouds
5:55 AM 44.6 °F - 23.0 °F 43% 30.12 in 10.0 mi Calm Calm - N/A   Clear
6:45 AM 39.2 °F 33.0 °F 23.0 °F 52% 30.12 in 40.0 mi ENE 9.2 mph - N/A   Scattered Clouds
7:50 AM 39.2 °F 37.0 °F 24.8 °F 56% 30.17 in 40.0 mi NNE 3.5 mph - N/A   Mostly Cloudy
8:48 AM 39.2 °F 35.9 °F 26.6 °F 61% 30.19 in 40.0 mi SE 4.6 mph - N/A   Mostly Cloudy
9:48 AM 41.0 °F 36.4 °F 26.6 °F 57% 30.18 in 50.0 mi SSE 6.9 mph - N/A   Mostly Cloudy
10:53 AM 42.8 °F 38.0 °F 26.6 °F 53% 30.17 in 50.0 mi SE 8.1 mph - N/A   Mostly Cloudy
11:53 AM 46.4 °F 41.9 °F 26.6 °F 46% 30.14 in 50.0 mi SE 9.2 mph - N/A   Mostly Cloudy
12:50 PM 46.4 °F 43.5 °F 24.8 °F 43% 30.14 in 40.0 mi East 5.8 mph - N/A   Mostly Cloudy
1:50 PM 48.2 °F - 26.6 °F 43% 30.11 in 50.0 mi ESE 9.2 mph - N/A   Mostly Cloudy
2:55 PM 53.6 °F - 24.8 °F 33% 30.08 in 50.0 mi SE 8.1 mph - N/A   Mostly Cloudy
3:47 PM 55.4 °F - 24.8 °F 31% 30.06 in 50.0 mi SE 10.4 mph - N/A   Scattered Clouds
5:48 PM 57.2 °F - 21.2 °F 25% 30.03 in 50.0 mi SE 6.9 mph - N/A   Mostly Cloudy
6:45 PM 55.4 °F - 21.2 °F 26% 30.04 in 40.0 mi Calm Calm - N/A   Mostly Cloudy
7:48 PM 46.4 °F 42.9 °F 23.0 °F 40% 30.04 in 40.0 mi WSW 6.9 mph - N/A   Mostly Cloudy
8:52 PM 48.2 °F - 17.6 °F 30% 30.09 in 20.0 mi West 5.8 mph - N/A   Mostly Cloudy
9:47 PM 44.6 °F 43.1 °F 19.4 °F 37% 30.04 in 20.0 mi SSE 3.5 mph - N/A   Mostly Cloudy
11:14 PM 44.6 °F 43.1 °F 21.2 °F 39% 30.03 in 10.0 mi West 3.5 mph - N/A   Clear
11:35 PM 44.6 °F 41.4 °F 21.2 °F 39% 30.02 in 10.0 mi SSE 5.8 mph - N/A   Clear
11:55 PM 42.8 °F - 21.2 °F 42% 30.02 in 10.0 mi Calm Calm - N/A   Clear